Regional Weather Roundup
Issued by NWS Kansas City/Pleasant Hill, MO

Home | Current Version | Previous Version | Text Only | Print | Product List | Glossary On
Versions: 1 2 3 4 5 6 7 8 9 10 11 12 13 14 15 16 17 18 19 20 21 22 23 24 25 26 27 28 29 30 31 32 33 34 35 36 37 38 39 40 41 42 43 44 45 46 47 48 49 50
000
ASUS43 KEAX 232204
RWREAX

WEATHER ROUNDUP FOR EASTERN KANSAS AND NORTHWEST MISSOURI
NATIONAL WEATHER SERVICE KANSAS CITY/PLEASANT HILL MO
500 PM CDT WED JUL 23 2014

KSZ040-057-103>105-MOZ028-029-037-043-232300-
...KANSAS CITY METROPOLITAN AREA...

CITY           SKY/WX    TMP DP  RH WIND       PRES   REMARKS
K.C. INTL      PTSUNNY   86  65  49 N13       30.12F
K.C. DOWNTOWN  SUNNY     88  64  44 N10       30.09F
LEES SUMMIT    SUNNY     86  65  49 NE10G17   30.10F
OLATHE - IXD   SUNNY     88  64  44 N9        30.10F
OLATHE - OJC   SUNNY     87  65  47 NE9       30.09F
LAWRENCE       SUNNY     89  68  49 N10       30.11F HX  93

$$

MOZ001>008-011>017-020>025-030>033-038>040-044>046-053-054-232300-
...NORTHERN AND CENTRAL MISSOURI...

CITY           SKY/WX    TMP DP  RH WIND       PRES   REMARKS
ST. JOSEPH     SUNNY     85  66  53 NE13      30.12F
MOSBY          CLEAR     86  61  42 N13       30.10S
WHITEMAN AFB   SUNNY     85  56  36 N15       30.06F
CLINTON        SUNNY     86  70  58 N14       30.05F HX  90
SEDALIA        SUNNY     86  65  49 N14       30.07F
WARSAW         NOT AVBL
MARSHALL       SUNNY     88  66  48 NE12G18   30.09S HX  90
CHILLICOTHE      N/A     86  62  44 N7        30.12F
KIRKSVILLE     MOSUNNY   80  62  54 NE15G21   30.13S

$$

MOZ041-047>049-056>058-063>065-088>090-097-232300-
...EASTERN AND SOUTHERN MISSOURI...

CITY           SKY/WX    TMP DP  RH WIND       PRES   REMARKS
ST. LOUIS INTL MOSUNNY   84  66  54 N15       30.05F
SPIRIT OF STL  PTSUNNY   83  65  54 NE15      30.04F
COLUMBIA       MOSUNNY   87  64  46 NE10      30.07F
JEFFERSON CITY PTSUNNY   86  66  51 NE10G18   30.04F
HANNIBAL       SUNNY     82  57  42 N9        30.10S
ROLLA          MOSUNNY   87  65  47 N12       30.04F
OSAGE BEACH    MOSUNNY   90  66  45 NE12G18   30.04S HX  92
SPRINGFIELD    MOSUNNY   92  65  40 N14       30.04S HX  94
BRANSON        PTSUNNY   75  72  88 E12       30.09R
JOPLIN         MOSUNNY   89  69  51 N9G17     30.05R HX  93
WEST PLAINS    PTSUNNY   72  68  87 SW6       30.06F
MALDEN         CLOUDY    73  68  83 W14       29.99F

$$

IAZ060-094-KSZ022-034>040-054-083-096-NEZ052-066-093-232300-
...KANSAS...SOUTHEAST NEBRASKA AND IOWA...

CITY           SKY/WX    TMP DP  RH WIND       PRES   REMARKS
TOPEKA         SUNNY     91  64  40 N10       30.11F HX  92
MANHATTAN      SUNNY     91  61  36 E14       30.10F HX  91
EMPORIA        PTSUNNY   88  65  46 VRB3      30.09F HX  90
CHANUTE        PTSUNNY   88  70  55 N14       30.06F HX  93
WICHITA        MOSUNNY   90  67  46 NE9       30.09F HX  93
OMAHA          MOSUNNY   86  58  38 NE10      30.16F
LINCOLN        MOSUNNY   88  57  34 NE15      30.16F
FALLS CITY     SUNNY     85  65  51 NE9       30.13F
LAMONI         MOSUNNY   81  62  52 NE12G17   30.15F
DES MOINES     MOSUNNY   84  58  40 NE13      30.15F

$$




USA.gov is the U.S. government's official web portal to all federal, state and local government web resources and services.